User: anonymous   Login
Location: Caltech
(34.1382°N, 118.1253°W)
Time: 12:35:42
(UTC-08:00)
Language:

Iridium 91 - Orbit

View from above orbital plane
View from above orbital plane
View from above satellite
View from above satellite

Ground track
Ground track

The orbit data is extracted from the following two-line orbital elements,

1 27372U 02005A   16040.34354953  .00000335  00000-0  11245-3 0  9992
2 27372  86.4011 134.2500 0002377  93.8321 307.7525 14.34218080740846
Epoch (UTC): 09 February 2016 08:14:42
Eccentricity: 0.0002377
inclination: 86.4011°
perigee height: 776 km
apogee height: 779 km
right ascension of ascending node: 134.2500°
argument of perigee: 93.8321°
revolutions per day: 14.34218080
mean anomaly at epoch: 307.7525°
orbit number at epoch: 74084

The dashed part of the orbit path shows where the satellite is in the earth's shadow,  

DLR